Notices

What's New in latest Release from April 7th, 2021:

- Updated Glossary, including Speed of Maximum Gust, and Total Hourly Precipitation

- Updated national and regional climate services offices contacts and prices information

- Addition of station inventory lists for 1981-2010, 1971-2000, and 1961-1990 Normals.

If you haven't already, please take our survey and provide feedback about our website: https://eccc.sondage-survey.ca/f/LanguageSelection.aspx?s=442ca660-fcf1-47c0-95a9-59707d6fd709

Hourly Data Report for April 21, 2016

MIRAMICHI RCS
NEW BRUNSWICK

47°00'34.000" N
65°27'54.000" W
33.00 m
8100989
71744
ACQ

Download Data

Hourly Data (April 2016)
Hourly Data Report for April 21, 2016
TIME
LST
Temp Definition
°C
Dew Point Definition
°C
Rel Hum Definition
%
Precip. Amount Definition
mm

Wind Dir Definition
10's deg

Wind Spd Definition
km/h
Visibility Definition
km
Stn Press Definition
kPa
Hmdx Definition


Wind Chill Definition


Weather Definition


00:00 2.3 -7.0 50 0.0 29 8   101.28     LegendNANA
01:00 1.3 -7.0 54 0.0 28 10   101.18     LegendNANA
02:00 0.9 -6.7 57 0.0 27 10   101.13     LegendNANA
03:00 0.3 -6.2 62 0.0 26 8   101.04     LegendNANA
04:00 0.5 -5.7 63 0.0 26 9   100.97     LegendNANA
05:00 -0.1 -6.0 65 0.0 26 7   100.91   -3 LegendNANA
06:00 1.6 -5.6 59 0.0 25 12   100.87     LegendNANA
07:00 3.4 -4.8 55 0.0 26 10   100.83     LegendNANA
08:00 7.2 -4.1 44 0.0 25 11   100.79     LegendNANA
09:00 14.2 -4.9 26 0.0 31 17   100.70     LegendNANA
10:00 16.4 -3.3 26 0.0 31 20   100.66     LegendNANA
11:00 17.8 -2.7 25 0.0 32 21   100.60     LegendNANA
12:00 19.5 -1.4 24 0.0 31 19   100.48     LegendNANA
13:00 20.0 -1.6 23 0.0 34 18   100.42     LegendNANA
14:00 20.9 -1.3 23 0.0 33 19   100.36     LegendNANA
15:00 20.9 -1.5 22 0.0 31 25   100.31     LegendNANA
16:00 21.0 -1.3 22 0.0 32 21   100.31     LegendNANA
17:00 21.0 -0.6 23 0.0 33 17   100.33     LegendNANA
18:00 20.3 -1.0 24 0.0 33 18   100.36     LegendNANA
19:00 18.9 -1.1 26 0.0 32 13   100.41     LegendNANA
20:00 16.6 -0.9 30 0.0 36 6   100.49     LegendNANA
21:00 8.9 -1.1 50 0.0 11 7   100.61     LegendNANA
22:00 7.8 -1.2 53 0.0 17 3   100.61     LegendNANA
23:00 7.0 -0.4 60 0.0 24 2   100.61     LegendNANA

Notes on Data Quality.

Legend

  • E = Estimated
  • M = Missing
  • NA = Not Available*
  • [empty] = Indicates an unobserved value
Date modified: